Theta_e
310 310 311 311 310 308 307 308 308 308 308 307 305 304 305 305 305 307 305 300 299 300 298 300 300 301 303 303 299 298 299 300 300 302 302 304 304 302 299 300 299 298 298 299 299 299 299
308 309 309 309 309 309 307 306 307 307 307 307 303 301 301 304 305 303 302 299 298 299 298 301 300 301 302 303 298 298 299 299 300 301 303 303 303 303 301 298 298 298 298 298 299 299 299
304 305 308 308 309 309 308 307 306 306 304 303 302 299 299 299 304 301 299 298 298 299 299 298 300 300 302 301 298 298 298 299 300 301 302 302 302 303 300 298 299 300 299 299 299 299 299
306 303 305 306 308 308 308 308 307 307 305 301 300 299 299 298 298 299 298 298 297 299 298 297 298 299 300 301 298 298 298 298 299 300 302 302 302 302 300 300 299 300 300 302 300 299 299
305 306 305 304 306 307 308 308 307 306 306 302 299 299 299 298 297 298 298 297 297 298 299 299 299 300 300 299 298 298 298 298 298 299 301 302 302 300 300 298 299 298 303 304 303 299 299
306 306 306 305 304 305 307 307 307 307 306 305 299 298 298 298 297 298 298 297 297 298 299 299 300 300 298 298 298 297 297 298 299 300 300 302 303 296 295 300 306 303 301 302 302 299 299
305 306 306 305 305 304 305 306 306 307 306 306 299 298 298 297 297 298 297 297 297 298 299 298 298 299 298 298 297 297 297 298 299 301 297 299 299 299 299 303 300 300 300 301 299 297 299
305 305 305 305 305 305 304 303 304 306 306 306 303 297 297 297 297 297 297 299 299 299 298 299 299 299 298 298 298 297 297 298 299 298 299 299 298 300 297 297 298 298 298 299 298 297 297
298 304 304 304 305 305 304 302 304 305 306 305 305 297 297 297 298 297 299 301 301 300 300 299 298 299 298 298 297 297 296 298 298 298 299 300 299 297 297 297 299 297 297 298 299 296 295
296 297 298 298 303 304 305 304 300 304 305 305 305 298 297 297 298 301 302 300 298 297 299 299 298 298 298 298 297 297 296 297 297 298 297 298 297 297 297 298 296 299 296 297 296 296 301
296 296 297 297 297 299 302 303 303 299 304 303 304 298 298 297 299 302 300 299 298 298 309 299 298 297 297 296 296 296 296 296 296 297 296 297 296 297 297 297 296 296 294 294 294 292 291
295 295 295 296 297 297 298 297 297 300 301 302 299 298 299 299 300 299 300 299 298 305 308 298 296 296 296 296 296 295 296 296 296 296 295 295 296 296 295 293 294 293 292 292 289 290 296
295 295 295 295 295 296 296 297 297 297 299 302 298 297 298 299 301 299 299 299 303 306 300 298 296 295 295 296 295 294 294 293 294 295 297 296 295 295 295 294 293 287 292 298 301 296 305
295 295 295 295 295 295 295 296 296 297 297 300 299 298 297 298 300 300 297 299 304 305 301 296 296 295 296 295 295 294 293 292 292 293 292 297 298 294 294 293 295 286 292 303 304 300 301
295 295 295 295 295 295 296 296 296 296 296 296 300 300 298 298 301 299 299 297 304 303 301 297 297 296 295 296 295 294 293 291 292 292 299 294 300 292 292 291 293 290 291 292 292 286 294
295 295 295 296 296 296 297 297 297 297 297 297 297 301 300 298 298 298 296 301 300 303 298 297 302 299 297 295 295 293 293 293 296 292 295 296 298 292 292 292 290 290 290 294 290 300 299
296 295 295 296 296 297 297 297 298 298 298 297 299 301 300 298 298 297 295 297 299 302 300 299 301 299 299 296 294 294 295 296 295 293 295 289 294 292 293 292 290 290 289 284 289 293 298
300 298 297 298 298 298 298 300 303 303 301 299 300 297 300 298 297 295 294 295 300 302 301 300 300 300 298 296 295 294 296 297 297 295 295 294 289 291 291 283 284 284 290 289 300 295 286
301 301 302 304 305 305 305 304 304 304 303 300 301 298 299 299 296 294 294 297 299 302 300 300 300 300 299 296 296 295 295 297 297 296 296 294 292 292 294 290 287 288 287 286 282 282 289
306 306 305 305 304 305 305 305 305 304 304 303 300 299 297 297 297 295 296 298 299 300 302 300 300 299 299 300 296 296 296 297 297 297 299 298 292 297 303 297 289 288 287 289 293 291 295
306 307 306 307 307 307 306 306 306 305 305 304 300 299 298 298 297 296 297 299 299 300 301 301 300 299 299 300 300 299 297 294 294 296 299 297 297 291 291 292 291 291 291 291 294 298 299
304 306 304 306 306 306 307 306 306 306 306 305 302 300 297 295 297 297 297 298 298 299 300 301 300 299 301 302 300 298 299 296 298 291 293 287 295 290 292 292 293 295 294 293 294 296 297
303 303 302 303 303 303 304 304 306 307 306 303 304 303 302 297 294 296 297 298 299 299 300 300 300 301 298 300 301 301 300 300 298 295 296 294 293 297 303 293 297 301 300 292 291 292 296
300 301 302 302 302 302 301 301 301 302 304 304 301 302 301 303 298 297 298 297 298 299 300 300 300 299 300 302 301 301 301 301 301 299 297 294 295 299 302 299 303 300 287 301 299 300 294
296 297 297 300 301 301 301 302 302 302 304 305 300 300 300 304 302 299 298 299 297 298 300 299 300 301 301 301 302 302 302 301 301 300 296 298 298 302 303 301 300 301 290 296 300 301 300
296 296 297 296 296 297 298 300 301 303 301 299 300 299 300 300 301 302 300 299 300 300 300 300 300 300 301 300 302 303 303 296 300 301 300 300 301 302 300 304 303 302 293 295 291 301 295
296 296 295 294 296 297 296 297 298 298 299 299 298 299 297 297 300 301 301 302 301 301 302 302 302 301 301 302 303 304 305 298 302 302 300 302 302 302 303 303 299 292 285 297 297 301 302
295 295 294 294 295 294 296 296 296 296 296 298 298 298 297 297 298 300 301 301 301 302 302 301 302 301 300 302 304 304 305 301 298 295 297 301 301 301 301 303 304 288 289 299 298 297 299
292 293 292 293 294 294 294 294 294 294 296 296 297 298 298 297 297 297 298 298 299 301 301 301 302 301 302 302 302 302 304 301 302 305 290 301 300 302 300 302 297 294 301 299 298 295 295
Wind_Speed
9 8 3 1 1 2 4 4 4 4 4 5 6 8 8 8 8 8 7 8 11 14 14 12 8 2 2 4 5 5 7 4 3 4 4 4 3 5 6 6 5 6 3 7 8 7 7
11 10 10 7 3 2 2 0 5 6 8 6 5 7 9 9 8 8 9 9 10 12 14 12 8 0 0 3 5 6 6 5 4 4 4 2 7 13 12 6 6 6 11 9 4 4 3
8 12 11 10 6 2 2 1 1 1 3 6 8 8 9 9 10 10 10 9 10 12 13 12 8 2 2 6 4 7 5 5 6 7 9 13 10 3 7 6 9 8 5 3 2 2 1
7 5 11 11 12 7 4 2 2 2 3 4 7 7 9 9 8 10 10 10 11 12 12 11 8 4 2 5 5 5 5 6 8 8 10 11 12 12 6 16 6 4 4 3 1 2 1
9 6 7 10 12 10 7 5 4 3 3 4 6 8 9 10 9 10 10 10 11 11 11 10 7 4 2 4 4 4 4 6 7 7 9 9 5 8 5 5 5 6 2 1 1 2 2
7 8 7 6 6 14 12 8 5 4 3 2 6 8 9 9 11 12 12 12 11 11 10 8 3 2 2 2 3 3 4 5 4 8 6 3 6 4 4 4 4 5 3 1 2 2 1
11 10 8 8 7 7 11 15 9 6 5 3 7 8 8 10 14 16 18 18 13 5 8 1 1 2 6 6 5 3 4 5 5 4 3 5 5 4 6 3 2 6 4 3 1 3 1
8 8 9 9 7 8 7 9 15 9 6 4 8 9 10 14 18 20 20 8 6 5 6 3 6 4 6 5 3 3 5 1 3 3 1 5 2 3 7 5 5 4 3 1 2 2 2
4 6 7 7 9 9 8 7 11 11 7 6 8 12 13 18 21 22 14 7 8 7 4 4 4 4 4 4 3 3 4 3 4 3 2 4 1 6 4 3 5 3 4 2 2 3 2
6 5 5 4 8 8 7 7 8 10 7 7 9 16 16 20 20 18 10 8 8 5 4 3 3 2 6 5 4 4 5 3 4 4 4 3 2 4 4 2 3 2 2 3 4 4 2
10 9 7 6 4 6 8 7 6 7 7 6 14 18 18 22 8 17 7 7 8 1 2 3 4 5 8 4 7 2 4 3 4 3 5 2 4 3 3 2 3 3 5 5 3 5 4
13 12 11 9 8 7 6 4 3 4 5 7 19 21 23 21 8 16 9 9 8 4 5 4 4 4 5 2 2 5 3 5 5 4 4 2 2 2 3 4 4 10 7 7 4 3 2
17 16 15 14 12 11 9 8 6 4 5 9 20 22 22 18 9 14 10 13 4 3 3 5 4 5 3 4 3 3 4 3 6 5 4 2 2 2 6 7 5 6 5 2 4 2 6
20 19 18 17 15 14 13 11 9 7 6 8 16 20 22 18 11 13 16 3 3 2 5 3 4 5 6 6 2 3 4 1 5 3 3 7 5 7 3 3 6 4 6 5 7 3 3
23 22 20 20 19 17 16 14 13 12 11 11 13 18 22 22 13 15 10 2 7 6 7 9 3 4 4 3 5 3 6 5 9 12 8 5 1 1 4 1 2 5 2 3 7 1 3
27 25 23 22 21 20 18 17 15 14 13 13 13 16 19 23 17 14 3 5 4 3 8 4 8 4 8 7 6 6 8 5 5 14 2 6 4 2 2 2 5 5 2 4 3 3 5
29 28 27 25 25 24 22 21 19 18 16 14 14 7 9 22 16 11 4 7 5 8 9 7 8 5 4 8 8 6 6 4 5 5 5 4 4 1 2 8 9 2 2 3 2 3 5
31 30 29 28 27 26 26 24 23 22 19 18 12 2 14 27 8 5 4 7 5 6 17 5 4 4 9 10 9 7 11 6 15 20 11 6 5 4 8 3 2 3 6 6 4 7 3
31 29 29 29 29 28 27 26 26 28 28 24 10 6 23 31 5 5 4 5 5 5 6 8 8 6 5 9 1 8 8 3 22 13 11 11 3 2 5 4 2 5 6 3 3 3 8
32 30 30 30 30 30 31 31 30 31 33 27 9 3 7 22 15 4 5 6 7 13 6 6 5 5 4 5 6 6 7 3 17 13 7 16 4 9 14 7 6 6 8 12 7 4 6
25 37 37 38 37 36 34 36 37 37 40 34 19 8 12 6 12 11 7 5 16 10 10 16 3 8 8 7 5 6 4 1 0 8 5 8 8 5 3 2 3 8 8 19 22 25 12
30 36 26 31 40 32 43 39 47 45 47 49 19 10 11 4 6 18 16 12 10 6 9 7 12 12 17 20 14 10 10 4 6 3 6 1 5 4 4 3 5 5 14 19 25 21 28
24 29 30 30 32 27 34 32 31 52 51 33 30 28 28 17 6 11 11 18 14 16 11 20 15 13 11 18 24 17 12 12 9 11 12 8 5 4 21 4 5 9 29 12 9 12 16
20 19 23 23 22 29 27 28 29 22 52 38 33 15 14 12 14 18 12 18 21 17 20 11 23 9 7 5 6 13 17 18 18 15 19 8 8 5 7 5 13 12 2 21 27 26 21
21 21 19 19 19 23 24 28 25 25 31 48 27 20 12 12 18 15 17 13 16 27 23 22 26 29 21 10 5 4 4 5 12 17 19 15 11 6 7 10 11 18 5 9 13 21 28
16 18 19 18 15 21 20 18 21 32 32 26 31 26 14 3 8 21 12 25 13 10 11 20 34 26 17 6 5 8 8 5 6 5 22 19 18 12 5 9 14 22 10 13 7 13 13
16 13 10 12 12 14 14 19 18 17 18 19 13 28 25 6 10 19 6 9 14 12 4 3 13 15 28 8 9 9 8 8 8 8 5 12 13 21 19 12 7 7 7 17 7 12 26
14 15 11 12 14 13 14 13 14 16 17 18 18 17 24 7 11 14 20 9 10 18 9 6 7 8 8 9 6 6 6 8 5 6 9 14 10 9 11 12 20 10 5 14 9 3 5
7 7 11 9 13 9 10 12 14 16 16 19 18 10 23 19 7 18 28 30 26 23 14 12 4 6 13 6 5 3 6 5 9 12 1 9 10 9 10 6 4 23 15 26 19 3 4
Wind_Direction
222 227 215 251 284 337 353 142 175 201 224 259 194 192 188 179 175 178 173 170 175 181 182 178 166 103 111 103 84 80 65 69 101 141 144 121 119 105 97 96 80 77 117 81 116 123 125
231 230 223 234 271 282 341 147 188 216 226 226 190 197 185 179 181 176 175 168 173 177 183 184 186 65 107 85 93 80 61 62 83 123 117 90 104 110 93 68 64 102 109 114 111 128 120
221 223 220 217 221 228 253 313 346 320 210 198 196 189 192 182 181 179 172 168 168 172 182 185 194 196 84 140 113 87 76 83 87 92 109 111 108 97 103 99 112 122 82 96 96 145 97
227 211 203 211 202 204 229 244 234 305 278 198 186 192 195 188 184 175 173 170 165 169 172 178 188 204 136 155 125 100 94 94 97 104 110 106 98 92 72 116 64 62 54 91 148 151 348
221 204 209 201 202 201 199 205 230 239 285 200 188 189 188 188 183 179 169 161 158 162 161 167 178 188 157 189 163 127 109 114 112 116 115 117 91 83 99 84 41 15 167 170 92 187 357
221 214 234 241 213 204 206 196 213 239 272 208 186 191 190 186 176 167 156 144 143 148 151 166 182 199 201 186 167 157 122 125 111 120 110 90 64 75 36 71 205 185 156 224 209 358 42
237 221 234 235 213 226 210 212 209 220 240 211 187 185 182 177 167 159 151 136 125 130 159 140 171 105 141 145 152 167 139 117 107 82 69 28 73 182 197 146 92 121 117 137 85 0 275
219 235 228 232 204 225 226 215 218 211 223 211 190 176 170 164 161 158 156 156 157 144 143 121 135 123 135 128 108 151 167 106 73 92 35 31 166 162 102 88 97 78 100 194 53 25 18
261 236 248 223 216 223 221 216 197 205 217 213 189 174 168 165 164 161 164 163 142 136 96 155 160 157 166 161 84 133 146 102 86 105 95 139 84 130 93 76 95 52 136 162 147 330 53
264 270 252 241 226 218 228 227 207 205 211 201 184 174 170 168 165 166 171 161 153 148 83 172 197 192 173 152 63 136 136 111 51 138 129 95 127 113 84 115 97 122 356 94 70 61 232
250 246 246 250 241 221 219 224 219 206 205 197 177 174 167 167 183 183 183 169 164 128 18 130 153 150 154 140 128 71 133 91 109 106 86 241 141 105 105 97 95 150 68 76 65 87 44
242 243 245 245 243 233 218 215 203 195 200 175 169 173 178 181 189 183 168 164 151 53 255 170 131 153 113 105 92 112 122 96 98 91 61 85 59 60 88 55 51 140 67 47 50 84 351
243 243 241 237 238 237 237 233 225 208 195 174 175 181 184 186 186 176 165 149 65 158 46 181 175 159 129 150 117 138 150 166 150 110 192 41 137 106 133 86 16 65 67 349 342 16 228
246 243 242 240 237 234 231 228 228 223 202 189 185 186 187 192 181 174 162 72 178 196 191 113 102 108 178 156 170 138 123 198 227 110 111 155 270 169 161 165 167 176 155 167 215 206 262
245 243 242 241 238 234 231 228 223 218 204 196 194 196 199 193 178 175 174 108 206 201 152 143 94 140 225 199 139 137 195 210 208 181 168 133 203 60 44 95 74 215 170 184 101 41 34
245 240 238 237 238 236 233 233 229 224 216 205 191 190 209 199 194 181 104 243 239 161 125 150 175 159 173 183 152 177 183 203 229 184 146 188 93 0 131 89 38 145 163 72 357 199 251
244 241 239 236 234 234 232 230 231 224 222 204 184 185 204 191 183 176 190 228 261 220 167 162 195 147 172 176 174 199 206 241 194 146 93 126 104 340 111 204 178 128 228 35 132 164 199
244 241 239 237 235 235 234 226 217 216 216 194 181 188 177 173 170 202 185 199 217 221 205 208 144 138 176 167 178 208 206 236 171 143 164 189 122 170 200 250 163 176 204 165 173 231 232
247 245 241 237 234 234 232 228 218 218 216 194 182 157 175 178 194 213 256 251 240 195 190 190 207 199 176 165 157 194 196 228 171 162 167 177 216 67 333 1 9 214 200 170 114 80 194
241 240 242 238 238 236 233 231 225 219 222 207 173 173 177 204 231 209 171 218 224 220 208 179 183 129 122 190 236 207 200 208 192 200 205 173 170 183 226 197 134 185 202 200 182 178 199
213 226 234 237 236 236 234 236 227 221 220 208 194 212 187 193 223 212 192 213 214 211 217 211 229 193 172 207 205 211 195 3 250 216 188 177 234 175 257 164 162 187 184 196 209 223 212
234 235 238 239 236 235 228 238 234 223 222 205 193 187 175 190 171 196 213 218 206 195 169 214 225 198 212 231 211 206 179 177 192 52 158 213 255 121 276 164 194 261 226 206 211 222 236
246 246 241 247 234 246 239 238 239 225 211 207 211 213 209 195 166 177 211 216 218 206 237 232 214 230 215 233 234 255 215 200 195 168 188 165 171 144 253 158 110 277 238 190 197 209 210
238 235 232 234 243 253 245 260 251 229 222 216 214 209 191 217 197 211 192 197 216 215 223 222 218 196 200 229 262 256 242 235 233 221 199 182 177 169 247 129 225 247 249 205 214 229 214
248 249 249 232 216 229 237 243 242 240 206 218 230 202 199 237 219 216 218 212 208 222 229 231 230 238 243 248 231 224 212 222 228 213 201 200 187 217 222 218 279 289 212 161 185 242 228
237 235 232 234 257 249 245 233 222 225 235 231 238 232 214 159 218 214 198 205 215 211 223 239 240 240 221 190 203 210 208 185 206 233 216 197 206 206 175 225 226 253 190 171 89 264 144
232 226 242 255 244 228 224 232 235 238 239 226 243 233 221 208 219 194 193 198 200 208 235 200 216 201 204 205 221 223 228 179 196 195 170 195 209 219 222 233 266 232 152 130 157 255 175
240 210 232 237 238 245 228 219 224 233 238 238 242 240 218 214 228 210 210 184 192 211 219 191 179 193 185 214 218 213 219 203 174 190 178 184 183 209 223 235 239 137 111 188 218 110 155
244 238 251 237 236 234 244 250 248 247 237 227 230 235 233 228 238 231 237 242 237 228 235 218 236 171 205 207 199 204 218 183 198 231 138 201 200 207 196 213 196 196 233 234 245 52 121